Weather History for KTOL - December, 2013

Change the Weather History Date:

Tuesday, December 17, 2013

  Actual Average Record
Temperature  
Mean Temperature 20 °F 29 °F  
Max Temperature 24 °F 36 °F 58 °F (1877)
Min Temperature 16 °F 23 °F -8 °F (1951)
Degree Days  
Heating Degree Days 45 36  
Month to date heating degree days 668 566  
Since 1 July heating degree days 2016 1799  
Cooling Degree Days 0 0  
Month to date cooling degree days 0 0  
Year to date cooling degree days 793 793  
Moisture  
Dew Point 18 °F    
Average Humidity 88    
Maximum Humidity 92    
Minimum Humidity 84    
Precipitation  
Precipitation 0.03 in 0.09 in 0.57 in (2001)
Month to date precipitation 0.74 1.50  
Year to date precipitation 34.50 33.06  
Snow  
Snow 0.70 in 0.20 in - ()
Month to date snowfall 9.5 3.5  
Since 1 July snowfall 10.0 5.6  
Snow Depth 6.00 in    
Sea Level Pressure  
Sea Level Pressure 29.99 in    
Wind  
Wind Speed 10 mph (WSW)    
Max Wind Speed 17 mph    
Max Gust Speed 22 mph    
Visibility 8 miles    
Events Snow    
T = Trace of Precipitation, MM = Missing Value Source: NWS Daily Summary

Daily Weather History Graph

Daily Weather History Graph

Search for Another Location

Airport or City:

Trip Planner

Search our weather history database for the weather conditions in past years. The results will help you decide how hot, cold, wet, or windy it might be!

Date:

Astronomy

Dec. 17, 2013 Rise Set
Actual Time 7:56 AM EST 5:06 PM EST
Civil Twilight 7:24 AM EST 5:38 PM EST
Nautical Twilight 6:49 AM EST 6:13 PM EST
Astronomical Twilight 6:16 AM EST 6:46 PM EST
Moon 5:46 PM EST (12/17) 7:51 AM EST (12/17)
Length of Visible Light 10h 13m
Length of Day
9h 10m
Full, 100% of the Moon is Illuminated
Dec 17
Full
Dec 25
Last Quarter
Jan 1
New
Jan 7
First Quarter
Jan 15
Full

Hourly Weather History & Observations

Time (EST) Temp. Windchill Dew Point Humidity Pressure Visibility Wind Dir Wind Speed Gust Speed Precip Events Conditions
1:52 AM 18.0 °F 8.7 °F 16.0 °F 92% 30.00 in 10.0 mi WNW 6.9 mph - 0.01 in   Overcast
2:52 AM 17.1 °F 8.7 °F 15.1 °F 92% 30.00 in 10.0 mi West 5.8 mph - N/A   Overcast
3:52 AM 17.1 °F 3.6 °F 15.1 °F 92% 30.01 in 10.0 mi West 12.7 mph - N/A   Overcast
4:41 AM 17.6 °F 5.7 °F 14.0 °F 86% 29.97 in 10.0 mi West 10.4 mph - N/A   Scattered Clouds
4:52 AM 17.1 °F 5.0 °F 15.1 °F 92% 30.01 in 10.0 mi West 10.4 mph - N/A   Mostly Cloudy
5:52 AM 18.0 °F 6.9 °F 16.0 °F 92% 30.01 in 10.0 mi WSW 9.2 mph - N/A   Mostly Cloudy
6:05 AM 17.6 °F 6.4 °F 15.8 °F 93% 29.98 in 10.0 mi WSW 9.2 mph - N/A   Scattered Clouds
6:16 AM 17.6 °F 6.4 °F 15.8 °F 93% 29.98 in 10.0 mi West 9.2 mph - N/A   Mostly Cloudy
6:48 AM 19.4 °F 7.9 °F 17.6 °F 93% 30.00 in 9.0 mi West 10.4 mph - N/A   Overcast
6:52 AM 19.9 °F 8.6 °F 17.1 °F 89% 30.04 in 9.0 mi West 10.4 mph - N/A   Overcast
7:06 AM 19.4 °F 7.2 °F 17.6 °F 93% 30.01 in 9.0 mi West 11.5 mph - N/A   Overcast
7:20 AM 19.4 °F 7.9 °F 17.6 °F 93% 30.01 in 8.0 mi West 10.4 mph - N/A   Overcast
7:52 AM 19.9 °F 11.1 °F 18.0 °F 92% 30.05 in 8.0 mi WSW 6.9 mph - N/A   Overcast
8:52 AM 21.9 °F 13.4 °F 19.0 °F 89% 30.04 in 9.0 mi WSW 6.9 mph - N/A   Overcast
9:52 AM 21.9 °F 10.4 °F 18.0 °F 85% 30.04 in 10.0 mi WSW 11.5 mph - N/A   Overcast
10:52 AM 21.9 °F 11.7 °F 18.0 °F 85% 30.04 in 10.0 mi SSW 9.2 mph - N/A   Overcast
11:52 AM 21.9 °F 11.0 °F 18.0 °F 85% 30.00 in 10.0 mi SSW 10.4 mph - N/A   Mostly Cloudy
12:52 PM 21.9 °F 8.7 °F 19.0 °F 89% 29.97 in 9.0 mi SSW 15.0 mph 20.7 mph N/A   Overcast
1:48 PM 23.0 °F 9.2 °F 19.4 °F 86% 29.92 in 10.0 mi WSW 17.3 mph 21.9 mph N/A   Overcast
1:52 PM 23.0 °F 10.1 °F 19.0 °F 85% 29.96 in 10.0 mi SW 15.0 mph 21.9 mph N/A   Overcast
2:21 PM 24.8 °F 12.4 °F 19.4 °F 80% 29.92 in 9.0 mi SW 15.0 mph - N/A   Overcast
2:48 PM 23.0 °F 11.1 °F 19.4 °F 86% 29.92 in 2.0 mi WSW 12.7 mph - 0.00 in Snow Light Snow
2:52 PM 23.0 °F 11.7 °F 19.0 °F 85% 29.96 in 1.2 mi SW 11.5 mph 20.7 mph 0.00 in Snow Light Snow
2:56 PM 23.0 °F 11.1 °F 19.4 °F 86% 29.92 in 0.8 mi SW 12.7 mph - 0.00 in Snow Light Snow
3:13 PM 21.2 °F 10.9 °F 19.4 °F 93% 29.93 in 0.8 mi SW 9.2 mph - 0.01 in Snow Light Snow
3:29 PM 21.2 °F 11.7 °F 19.4 °F 93% 29.92 in 1.0 mi SW 8.1 mph 17.3 mph 0.02 in Snow Light Snow
3:34 PM 21.2 °F 9.5 °F 19.4 °F 93% 29.92 in 1.8 mi SW 11.5 mph 17.3 mph 0.03 in Snow Light Snow
3:41 PM 23.0 °F 10.1 °F 19.4 °F 86% 29.92 in 2.5 mi SW 15.0 mph 18.4 mph 0.03 in Snow Light Snow
3:52 PM 23.0 °F 11.7 °F 19.0 °F 85% 29.96 in 2.5 mi SW 11.5 mph 18.4 mph 0.03 in Snow Light Snow
4:02 PM 23.0 °F 11.1 °F 19.4 °F 86% 29.93 in 4.0 mi WSW 12.7 mph - 0.00 in Snow Light Snow
4:21 PM 21.2 °F 8.3 °F 19.4 °F 93% 29.94 in 9.0 mi WSW 13.8 mph - 0.00 in   Overcast
4:52 PM 23.0 °F 11.7 °F 19.0 °F 85% 29.98 in 10.0 mi WSW 11.5 mph - 0.00 in   Overcast
5:48 PM 23.0 °F 11.7 °F 19.4 °F 86% 29.95 in 10.0 mi SW 11.5 mph - N/A   Overcast
5:52 PM 23.0 °F 11.1 °F 19.0 °F 85% 29.98 in 10.0 mi SW 12.7 mph - N/A   Overcast
6:52 PM 23.0 °F 11.7 °F 19.0 °F 85% 30.00 in 10.0 mi WSW 11.5 mph - N/A   Overcast
7:52 PM 23.0 °F 10.6 °F 19.9 °F 88% 30.02 in 10.0 mi WSW 13.8 mph - N/A   Overcast
8:07 PM 23.0 °F 11.1 °F 19.4 °F 86% 29.99 in 10.0 mi WSW 12.7 mph - N/A   Overcast
8:31 PM 21.2 °F 10.1 °F 19.4 °F 93% 29.99 in 10.0 mi SW 10.4 mph - N/A   Scattered Clouds
8:52 PM 19.9 °F 8.6 °F 18.0 °F 92% 30.03 in 9.0 mi WSW 10.4 mph - N/A   Clear
9:52 PM 21.0 °F 11.4 °F 19.0 °F 92% 30.04 in 9.0 mi SW 8.1 mph - N/A   Clear
10:52 PM 21.9 °F 13.4 °F 19.9 °F 92% 30.04 in 9.0 mi SW 6.9 mph - N/A   Clear
11:52 PM 23.0 °F 12.4 °F 19.9 °F 88% 30.05 in 9.0 mi SW 10.4 mph - N/A   Clear